Location: Agendoh
(31.0664°N, 8.9343°W)
Time: 04:54:54
(UTC+00:00)

Cosmos 1151 Rocket - Pass Details

Date: 04 July 2022
Orbit: 591 x 615 km, 82.5° (Epoch: 16 August)

Event Time Altitude Azimuth Distance (km) Brightness Sun altitude
Rises 02:08:41 0° 5° (N) 2,887 7.5 -32.0°
Reaches altitude 10° 02:11:05 10° 14° (NNE) 1,978 6.5 -31.8°
Enters shadow 02:13:55 29° 48° (NE) 1,130 4.8 -31.6°
